This is the latest recevied weather packets stored in our database for station/object K6GMW. If no packets are shown the sender has not sent any weather packets the latest 10 day(s).
| Time | Temp. | Humidity | Pressure | Rain* | Wind** | Luminosity | Snow |
|---|---|---|---|---|---|---|---|
| 1777848098 | 26.67° C | 38% | 1017.7 hPa | 0 mm | - | 338 W/m² | - |
| 1777847796 | 26.67° C | 38% | 1017.8 hPa | 0 mm | - | 355 W/m² | - |
| 1777847492 | 27.22° C | 38% | 1017.7 hPa | 0 mm | - | 377 W/m² | - |
| 1777847189 | 27.22° C | 36% | 1017.9 hPa | 0 mm | - | 361 W/m² | - |
| 1777846887 | 27.22° C | 35% | 1017.9 hPa | 0 mm | - | 424 W/m² | - |
| 1777846585 | 27.22° C | 37% | 1017.9 hPa | 0 mm | - | 451 W/m² | - |
| 1777846282 | 27.22° C | 37% | 1017.9 hPa | 0 mm | - | 467 W/m² | - |
| 1777845979 | 26.67° C | 36% | 1018 hPa | 0 mm | - | 495 W/m² | - |
| 1777845675 | 26.67° C | 36% | 1018 hPa | 0 mm | - | 117 W/m² | - |
| 1777845372 | 26.67° C | 36% | 1018 hPa | 0 mm | - | 541 W/m² | - |
| 1777845069 | 27.22° C | 37% | 1018.3 hPa | 0 mm | - | 560 W/m² | - |
| 1777844768 | 26.67° C | 37% | 1018.3 hPa | 0 mm | - | 597 W/m² | - |
| 1777844463 | 26.11° C | 37% | 1018.3 hPa | 0 mm | - | 634 W/m² | - |
| 1777844162 | 25.56° C | 38% | 1018.4 hPa | 0 mm | - | 179 W/m² | - |
| 1777843858 | 25.56° C | 39% | 1018.5 hPa | 0 mm | - | 168 W/m² | - |
| 1777843556 | 26.11° C | 38% | 1018.6 hPa | 0 mm | - | 177 W/m² | - |
| 1777843253 | 26.67° C | 37% | 1018.8 hPa | 0 mm | - | 231 W/m² | - |
| 1777842950 | 26.67° C | 37% | 1018.8 hPa | 0 mm | - | 717 W/m² | - |
| 1777842645 | 27.22° C | 36% | 1018.8 hPa | 0 mm | - | 152 W/m² | - |
| 1777842343 | 27.22° C | 37% | 1019 hPa | 0 mm | - | 734 W/m² | - |
| 1777842038 | 26.67° C | 36% | 1019.2 hPa | 0 mm | - | 758 W/m² | - |
| 1777841735 | 26.67° C | 37% | 1019.2 hPa | 0 mm | - | 761 W/m² | - |
| 1777841432 | 27.22° C | 39% | 1019.2 hPa | 0 mm | - | 783 W/m² | - |
| 1777841129 | 27.22° C | 37% | 1019.3 hPa | 0 mm | - | 807 W/m² | - |
| 1777840826 | 26.67° C | 39% | 1019.4 hPa | 0 mm | - | 835 W/m² | - |
* Rain latest hour (hover to see other rain measurements)
** Current wind speed in m/s (hover to see current wind gust speed)